Lid_Strength_Index
4 4 3 3 2 2 3 1 1 1 1 1 0 -0 -0 -1 -1 -0 -0 -0 -1 0 0 -0 -2 -1 -1 -2 -2 -1 -2 -1 -1
6 4 3 3 2 2 2 1 1 1 1 0 0 0 -0 -0 -1 -1 -1 -1 -1 -0 -1 -1 -1 -1 -1 -1 -2 -2 -2 -1 -1
6 5 4 3 2 2 1 2 1 1 0 1 0 -0 -0 -0 -0 -1 -1 -1 -1 -1 -1 -1 -1 -1 -1 -1 -1 -1 -1 -1 -1
5 5 4 3 2 2 1 1 2 1 1 1 0 -0 -0 -0 -0 -1 -1 -1 -1 -1 -1 -1 -1 -1 -1 -1 -1 -1 -1 -1 -1
4 4 3 3 3 2 2 2 2 2 1 1 0 -0 -0 -0 -0 -0 -0 -0 -1 -1 -1 -1 -1 -1 -1 -1 -1 -1 -1 -0 -1
5 4 4 4 3 4 3 2 2 2 1 1 0 0 0 0 -0 -0 -0 -0 -1 -1 -1 -1 -1 -1 -1 -1 -1 -1 -1 -1 -1
6 5 4 4 4 4 3 2 2 2 1 1 1 0 0 0 0 -0 -0 -1 -1 -1 -1 -1 -1 -1 -1 -1 -1 -1 -1 -1 -0
6 6 5 4 4 3 3 3 2 2 1 1 1 0 1 0 0 -0 -0 -0 -0 -1 -1 -1 -1 -1 -1 -1 -1 -0 -1 -1 -0
7 6 5 5 4 3 3 3 3 2 2 2 1 1 1 1 0 0 -0 -0 -0 -0 -1 -1 -1 -0 -0 -0 -0 3 3 1 -0
6 6 5 5 5 5 4 3 2 2 2 1 1 1 1 1 0 1 0 0 -0 -0 -0 -0 -0 -0 -0 -0 -0 8 6 3 -0
6 5 5 5 6 6 6 5 4 3 3 2 1 1 1 0 0 1 2 1 0 -0 -0 -0 -0 -0 -0 1 4 9 8 5 -1
4 4 5 5 6 6 6 6 5 5 4 4 3 3 2 1 1 2 2 2 1 0 0 0 0 0 1 1 4 9 9 4 -1
4 5 6 6 5 7 7 7 6 6 6 5 4 4 2 0 0 0 1 1 1 0 0 1 1 3 4 6 5 9 9 5 -0
5 5 5 5 6 6 7 7 7 7 7 7 5 4 3 2 1 1 1 1 0 -0 0 0 1 2 3 4 5 7 9 8 3
4 5 6 6 6 6 6 5 6 6 6 5 5 4 4 3 3 3 2 2 2 1 0 1 0 0 2 2 3 9 9 9 9
3 3 3 3 5 4 4 4 4 5 5 4 4 3 4 4 3 3 2 1 0 1 0 0 1 2 2 1 2 3 6 7 8
3 3 4 4 4 4 5 4 4 3 4 3 3 4 4 4 3 2 1 1 1 1 0 0 0 2 2 2 4 6 6 5 4
3 4 4 3 4 4 4 5 4 4 4 4 4 4 4 4 4 3 3 4 5 5 7 7 2 3 3 3 4 8 10 11 9
4 4 4 4 4 4 5 5 5 5 4 4 4 5 5 5 5 5 4 5 7 11 11 11 12 12 9 7 11 12 12 12 12
5 5 5 5 4 4 4 5 5 5 5 5 5 5 6 6 6 6 6 6 6 8 11 11 12 13 13 13 13 13 13 13 12